STARLINK-37520, 69819

Orbit data source: Space-Track

STARLINK-37520, 69819 is a payload satellite owned by SpaceX/Seattle (US) in LEO that was launched on Sun, 05 Jul 2026 UTC via an FALCON 9 launch vehicle from the Air Force Eastern Test Range (AFETR). Payload-class satellites include a variety of spacecraft equipped with specific instruments for various scientific and technological missions. These include communications satellites like Starlink; space stations such as the ISS; scientific satellites like the Hubble; Earth observation satellites from companies like Planet Labs, Umbra, and HawkEye 360; GPS; miniature CubeSats for education and research; and military/defense satellites.

Loading next visibility...
Identifier
69819, 2026-154A
Orbit
LEO
Country
Flag of USUS
Related business
Manufacturer
SpaceX/Seattle
Mission
Operational spacecraft
Bus & Motor
STARLINK V2MO, Unknown motor
Mass
575 kg wet, ~530 kg dry
Launch date (UTC)
2026-07-05 (2 months ago)
Launch vehicle
FALCON 9
Launch site
Air Force Eastern Test Range (AFETR)
Object type
Payload
Rocket body
Debris
Shape & HBR
BOX + PAN, 17.7 m
Radar Cross Section
Large (>1 m²)

Expand to show TLE details & history
Last TLE update: 5 hours ago

TLE from 5 hours ago
0 STARLINK-37520
1 69819U 26154A   26236.64523536  .00037170  00000-0  11043-2 0  9993
2 69819  53.1594  97.3702 0000903 104.4705 255.6398 15.34442912  9117
Epoch: 2026-08-24T15:29Z
TLE epoch observation values (Epoch: 2026-08-24T15:29:08.335Z)
Latitude
0.00001°
Longitude
-107.83849°
Altitude
463.63 km
Speed
7.636 km/s
True Right ascension
06h 29m 28s
True Declination
0° 00' 00"
Sunlit
Object was in daylight at epoch
Visualization orbit readout
Latitude
Unknown
Longitude
Unknown
Altitude
Unknown
Speed
Unknown
Apparent Right ascension
Unknown
Apparent Declination
Unknown
Sunlit
N/A
Visualization observer readout
Local Sidereal Time
12:11:07
Azimuth
Unknown
Elevation
Unknown
Doppler factor
Unknown
Orbital elements
Apogee altitude
463.45 km
Perigee altitude
462.215 km
Semi-major axis
6,840.97 km
Eccentricity
0.00009
Inclination
53.1594°
RAAN
97.3702°
Arg. of periapsis
104.4705°
True anomaly
255.62978°
Mean anomaly
255.6398°
Eccentric anomaly
255.63479°
Mean motion
3.83589 °/min
Orbital period
93.85 mins
BSTAR
0.0011043
Loading maneuver chart data...
Computing Atmospheric mass density...
Loading historical data...
Loading historical data...
Loading historical data...
Loading historical data...
Loading historical data...
Loading historical data...
Loading historical data...

Documentation

Showing up to 5 results
|